Location: Unspecified
(0.0000°N, 0.0000°E)
Time: 09:54:17
(UTC+00:00)

Altair - Visible Passes

Search period start: 18 July 2025 00:00
Search period end: 28 July 2025 00:00
Orbit: 1502 x 1682 km, 47.2° (Epoch: 17 July)

Date Brightness Start Highest point End Pass type
(mag) Time Alt. Az. Time Alt. Az. Time Alt. Az.
18 Jul 9.5 21:34:19 10° NNE 21:34:34 10° NNE 21:34:34 10° NNE visible
19 Jul 9.5 21:10:24 10° NNE 21:10:28 10° NNE 21:10:28 10° NNE visible
20 Jul 9.6 22:43:52 10° NNW 22:44:26 12° NNW 22:44:26 12° NNW visible
21 Jul 9.4 22:18:47 10° NNW 22:20:26 17° NNW 22:20:26 17° NNW visible
22 Jul 9.1 21:53:45 10° NNW 21:56:30 21° NNW 21:56:30 21° NNW visible
23 Jul 8.8 21:28:45 10° NNW 21:32:38 26° N 21:32:38 26° N visible
24 Jul 8.6 21:03:47 10° NNW 21:08:48 30° N 21:08:48 30° N visible
25 Jul 8.4 20:38:52 10° NNW 20:45:01 32° NNE 20:45:01 32° NNE visible
25 Jul 9.7 22:42:35 10° WNW 22:43:03 12° WNW 22:43:03 12° WNW visible
26 Jul 8.3 20:13:58 10° N 20:21:18 30° NE 20:21:18 30° NE visible
26 Jul 9.3 22:17:13 10° NW 22:19:20 19° WNW 22:19:20 19° WNW visible
27 Jul 8.4 19:49:08 10° N 19:56:29 27° NE 19:57:39 26° ENE visible
27 Jul 8.8 21:51:54 10° NW 21:55:40 28° WNW 21:55:40 28° WNW visible
